User: anonymous   Login
Location: Six Mile Lake
(44.9000°N, 79.7170°W)
Time: 08:44:46
(UTC-04:00)
Language:

BEESAT - Orbit

View from above orbital plane
View from above orbital plane
View from above satellite
View from above satellite

Ground track
Ground track

The orbit data is extracted from the following two-line orbital elements,

1 35933U 09051C   22178.83924410  .00000332  00000-0  85004-4 0  9998
2 35933  98.5618  36.6893 0006528  38.1612 322.0046 14.56891889677689
Epoch (UTC): 27 June 2022 20:08:30
Eccentricity: 0.0006528
inclination: 98.5618°
perigee height: 698 km
apogee height: 708 km
right ascension of ascending node: 36.6893°
argument of perigee: 38.1612°
revolutions per day: 14.56891889
mean anomaly at epoch: 322.0046°
orbit number at epoch: 67768

The dashed part of the orbit path shows where the satellite is in the earth's shadow,  

DLR